Regional Weather Roundup
Issued by NWS

Home | Current Version | Previous Version | Graphics & Text | Print | Product List | Glossary On
Versions: 1 2 3 4 5 6 7 8 9 10 11 12 13 14 15 16 17 18 19 20 21 22 23 24 25 26 27 28 29 30 31 32 33 34 35 36 37 38 39 40 41 42 43 44 45 46 47 48 49 50
000
ASUS43 KLSX 190259
RWRMO

WEATHER SUMMARY FOR MISSOURI
NATIONAL WEATHER SERVICE SPRINGFIELD MO
1000 PM CDT FRI APR 18 2014

NOTE: "FAIR" INDICATES FEW OR NO CLOUDS BELOW 12,000 FEET WITH NO
       SIGNIFICANT WEATHER AND/OR OBSTRUCTIONS TO VISIBILITY.
       CURRENT SKY AND/OR WEATHER CONDITIONS ARE NOT AVAILABLE FOR
       CHILLICOTHE AND FARMINGTON.

MOZ001>031-035>038-043-044-053-054-190400-
...NORTHERN AND WESTERN MISSOURI...

CITY           SKY/WX    TMP DP  RH WIND       PRES   REMARKS
KANSAS CTY INT PTCLDY    54  40  59 SE8       30.17R
KANSAS C DTWN  PTCLDY    62  42  47 SE8       30.16R
LEE`S SUMMIT   CLEAR     59  41  51 SE6       30.18R
ST JOSEPH      PTCLDY    55  40  56 SE6       30.16R
CHILLICOTHE      N/A     51  41  68 CALM      30.21R
KIRKSVILLE     CLEAR     53  35  50 E6        30.22S

$$
MOZ066>068-077>081-088>096-101>105-190400-
...SOUTHWEST MISSOURI...

CITY           SKY/WX    TMP DP  RH WIND       PRES   REMARKS
SPRINGFIELD    CLEAR     57  41  55 E6        30.18R
JOPLIN         CLEAR     59  42  53 E6        30.17R

$$
MOZ032>034-039>042-045>050-055>058-069>072-190400-
...CENTRAL MISSOURI...

CITY           SKY/WX    TMP DP  RH WIND       PRES   REMARKS
COLUMBIA       CLEAR     56  42  59 E8        30.21R
JEFFERSON CITY CLEAR     54  43  66 CALM      30.21R
ROLLA          CLEAR     56  40  55 E7        30.21R
SEDALIA        CLEAR     59  43  55 E5        30.20R
OSAGE BEACH    CLEAR     59  37  44 E6        30.21R

$$
MOZ051-052-059>065-190400-
...EAST CENTRAL MISSOURI...

CITY           SKY/WX    TMP DP  RH WIND       PRES   REMARKS
ST LOUIS INTL  CLEAR     60  41  49 E6        30.25R
SPIRIT OF STL  CLEAR     52  43  71 CALM      30.23R
ST CHARLES     CLEAR     53  44  71 E6        30.24R

$$
MOZ072>076-082>087-097>100-106>115-190400-
...SOUTH CENTRAL AND SOUTHEAST MISSOURI...

CITY           SKY/WX    TMP DP  RH WIND       PRES   REMARKS
CAPE GIRARDEAU CLEAR     57  44  62 NE3       30.21R
FARMINGTON     CLEAR     57  39  51 E5        30.25S
POPLAR BLUFF   CLEAR     58  49  72 CALM      30.20R
WEST PLAINS    CLEAR     61  41  47 SE7       30.21R

$$



USA.gov is the U.S. government's official web portal to all federal, state and local government web resources and services.